Regional Weather Roundup
Issued by NWS

Home | Current Version | Previous Version | Graphics & Text | Print | Product List | Glossary On
Versions: 1 2 3 4 5 6 7 8 9 10 11 12 13 14 15 16 17 18 19 20 21 22 23 24 25 26 27
000
ASUS45 KSLC 200010
RWRUT

UTAH REGIONAL WEATHER ROUNDUP
NATIONAL WEATHER SERVICE SALT LAKE CITY UT
600 PM MDT TUE SEP 19 2017

UTZ001>011-023>025-200100-

NORTHERN UTAH

CITY           SKY/WX    TMP DP  RH WIND       PRES   REMARKS
BRIGHAM CITY   MOSUNNY   58  32  37 CALM      29.92S
HILL AFB       SUNNY     57  31  37 CALM      29.91S
LOGAN          MOSUNNY   56  37  49 N8        29.92S
OGDEN          SUNNY     60  34  37 N5        29.90S
SALT LAKE CITY MOSUNNY   63  35  35 CALM      29.90F
TOOELE VALLEY  SUNNY     61  36  39 NE7       29.90S
WENDOVER       PTSUNNY   68  22  17 NW20G26   29.87S
HEBER CITY     MOSUNNY   52  34  50 CALM      29.94S
WEST JORDAN    SUNNY     58  41  52 N10       29.92S

$$

UTZ011>015-024>027-200100-

CENTRAL/NORTHEAST UTAH

CITY           SKY/WX    TMP DP  RH WIND       PRES   REMARKS
PROVO AIRPORT  MOSUNNY   61  40  45 NW8       29.90F
MOAB/CANYONLAN MOSUNNY   82  34  17 S22G28    29.70S
DELTA          SUNNY     68  30  24 N16G22    29.84F
PRICE          MOSUNNY   68  37  32 NW14      29.83R
ROOSEVELT      SUNNY     64  30  27 W29G37    29.84R
VERNAL         MOSUNNY   61  36  39 E9        29.83R

$$

UTZ013>016-019>022-027-200100-

SOUTHERN UTAH

CITY           SKY/WX    TMP DP  RH WIND       PRES   REMARKS
BRYCE CANYON   SUNNY     65  31  28 SW17G31   30.00S
CEDAR CITY     SUNNY     73  34  23 SW18G28   29.90R
MILFORD        SUNNY     76  34  21 SW26G37   29.82S
ST GEORGE      PTCLDY    86  37  17 W17       29.75F
HANKSVILLE     MOSUNNY   84  30  14 W14       29.72F
BLANDING         N/A     76  26  15 SW16G23   29.95S

$$

REGIONAL REPORTS     COLORADO/ARIZONA

CITY           SKY/WX    TMP DP  RH WIND       PRES   REMARKS
CRAIG, CO      LGT RAIN  44  32  62 N9        29.99R
GRAND JUNCTION CLOUDY    78  29  16 SW18G28   29.74S
RIFLE, CO      CLOUDY    74  25  16 SW18G26   29.77R
MONTROSE, CO   SUNNY     76  21  12 SW18      29.84F
CORTEZ, CO     SUNNY     77  20  12 SW16G28   29.90S
PAGE, AZ       SUNNY     86  30  13 W10G16    29.77S
GRAND CANYON   SUNNY     72  25  17 SW25G35   30.02S
KINGMAN, AZ    SUNNY     84  37  18 SW22G28   29.85S
FLAGSTAFF, AZ  SUNNY     67  23  19 SW24G32   30.08S

$$

REGIONAL REPORTS    NEVADA/IDAHO/WYOMING

CITY           SKY/WX    TMP DP  RH WIND       PRES   REMARKS
LAS VEGAS, NV  MOSUNNY   88  41  19 SW12G17   29.71F
ELY, NY        SUNNY     66  24  20 NW13G23   29.91R
ELKO, NV       SUNNY     61  17  18 W16G24    29.93F
POCATELLO, ID  MOSUNNY   52  34  50 SW28G36   29.91R
BURLEY, ID     MOSUNNY   52  36  54 W12G23    29.91S
FORT BRIDGER,    N/A     46  35  65 W20G25    30.00R
EVANSTON, WY   MOSUNNY   47  30  51 W16G30    29.97S
ROCK SPRINGS,  CLOUDY    44  31  60 W23G30    29.95R

$$




USA.gov is the U.S. government's official web portal to all federal, state and local government web resources and services.